Location: Roanoke
(37.2710°N, 79.9420°W)
Time: 12:22:27
(UTC-05:00)

S-56A Canister/Altair - Pass Details

Date: 25 November 2019
Orbit: 633 x 2499 km, 38.9° (Epoch: 04 December)

Event Time Altitude Azimuth Distance (km) Brightness Sun altitude
Rises 14:53:28 0° 238° (WSW) 6,092 13.5 19.9°
Reaches altitude 10° 14:57:42 10° 237° (WSW) 4,964 13.5 19.3°
Maximum altitude 15:11:20 71° 157° (SSE) 1,969 10.0 17.5°
Drops below altitude 10° 15:20:41 10° 76° (ENE) 3,526 10.4 16.1°
Sets 15:23:12 0° 74° (ENE) 4,283 10.8 15.8°
